SCP
0 0 0 0 0 0 0 0 -0 -0 -0 -0 -0 -0 -0 -0 -0 -0 -0 -0 -0 -0 -0 -0 -0 -0 0 0 0 0 0 0 -0 0 0 0 0 0 0 0 -0 0 0 0 0 0 0
0 0 0 0 0 0 0 0 0 0 -0 -0 -0 -0 -0 -0 -0 -0 -0 -0 -0 -0 -0 -0 0 0 0 0 0 0 0 0 0 0 0 0 0 0 0 0 0 0 0 0 0 0 0
0 0 0 0 0 0 0 0 0 0 0 -0 -0 -0 -0 -0 -0 -0 -0 -0 -0 -0 -0 -0 -0 0 -0 -0 0 0 0 0 -0 0 0 -0 0 0 0 0 0 0 0 0 0 0 0
0 0 0 0 0 0 0 0 0 0 -0 -0 -0 -0 -0 -0 -0 -0 -0 -0 -0 -0 -0 -0 -0 0 0 0 0 0 0 0 0 0 0 0 0 0 0 0 0 0 0 0 0 0 0
0 0 -0 -0 -0 -0 -0 -0 -0 -0 -0 -0 -0 -0 -0 -0 -0 -0 -0 -0 -0 -0 -0 -0 0 0 0 0 0 0 -0 -0 0 0 0 0 0 0 0 0 0 0 0 0 0 -0 0
0 0 -0 -0 -0 -0 -0 -0 -0 -0 -0 -0 -0 -0 -0 -0 -0 -0 -0 -0 -0 0 -0 -0 -0 -0 0 0 0 0 0 -0 0 0 0 0 0 0 0 0 0 0 -0 0 0 0 0
-0 0 -0 -0 -0 -0 -0 -0 -0 -0 -0 -0 -0 -0 -0 -0 -0 -0 -0 0 0 0 -0 -0 0 -0 0 0 0 0 0 0 0 0 0 -0 0 0 -0 -0 -0 0 0 0 0 0 0
-0 -0 0 0 -0 -0 -0 -0 -0 -0 -0 -0 -0 -0 -0 -0 -0 0 0 0 0 0 -0 -0 -0 -0 0 0 0 0 0 0 0 0 0 0 0 0 0 0 0 0 0 0 0 0 0
-0 -0 -0 0 -0 -0 -0 -0 -0 -0 -0 -0 -0 -0 -0 -0 0 0 -0 0 0 0 0 -0 -0 0 0 0 0 0 0 0 0 0 0 0 -0 -0 0 0 0 0 0 0 0 0 0
-0 -0 -0 -0 0 -0 -0 -0 -0 -0 -0 -0 -0 -0 -0 -0 0 0 0 0 -0 0 0 0 0 0 0 0 0 0 -0 0 0 0 0 -0 -0 -0 -0 0 0 0 0 0 0 0 0
0 -0 0 0 0 0 -0 -0 -0 -0 -0 -0 -0 -0 -0 -0 -0 0 0 0 -0 0 0 0 0 0 0 0 0 0 0 0 0 -0 -0 0 0 -0 0 0 0 0 0 0 0 0 0
0 0 0 0 0 0 -0 -0 -0 -0 -0 -0 -0 -0 -0 0 0 0 0 -0 0 0 0 0 0 0 0 0 0 -0 0 0 0 -0 -0 -0 -0 -0 -0 -0 0 0 0 0 0 0 0
0 0 0 0 0 -0 -0 -0 -0 -0 -0 -0 -0 -0 -0 -0 0 0 0 0 0 0 0 0 0 0 0 0 0 0 0 0 0 0 0 0 0 0 0 0 0 0 0 0 0 0 0
0 -0 -0 0 0 -0 -0 -0 -0 -0 -0 -0 -0 -0 0 0 -0 -0 0 0 0 -0 -0 0 0 0 0 -0 0 0 0 0 0 0 0 0 0 0 0 0 0 0 0 0 0 0 0
0 -0 -0 -0 0 0 0 -0 -0 -0 -0 -0 -0 0 0 0 0 0 0 0 0 -0 0 0 0 0 0 0 0 0 0 0 0 0 0 0 -0 -0 0 0 0 0 0 0 0 0 0
0 0 -0 0 0 0 0 -0 -0 -0 -0 -0 0 -0 0 0 0 0 0 0 -0 -0 0 0 0 0 0 0 0 -0 0 0 0 0 0 0 0 -0 -0 0 0 0 0 0 0 0 0
0 0 0 0 0 0 0 0 0 -0 -0 -0 0 0 0 0 0 0 0 0 -0 -0 0 0 0 0 0 0 0 0 -0 -0 0 0 0 0 0 0 0 0 0 0 0 0 0 0 0
0 0 0 0 -0 0 -0 0 0 0 0 -0 0 0 0 0 0 0 0 0 0 0 0 0 0 0 0 0 0 0 0 0 0 -0 0 0 0 0 0 0 0 0 0 0 0 0 0
0 0 0 0 0 -0 -0 -0 0 0 -0 0 0 0 0 0 0 0 0 0 0 0 0 0 0 0 -0 0 0 0 0 0 -0 -0 0 0 0 0 0 0 0 0 0 0 0 0 0
0 0 0 0 0 0 0 -0 0 0 0 0 0 0 0 0 0 0 0 0 0 0 0 0 0 0 0 0 0 0 0 0 -0 0 0 0 0 0 0 0 0 -0 0 0 0 0 0
0 0 0 0 0 0 -0 0 0 0 0 0 0 0 0 0 0 0 0 0 0 0 0 0 0 0 0 0 0 0 0 0 0 0 0 0 0 0 0 0 0 0 0 0 0 0 0
0 0 0 0 0 0 0 0 0 0 0 0 0 0 0 0 0 0 0 0 0 0 0 0 0 0 0 0 0 0 0 0 0 0 0 0 0 0 0 0 0 0 0 -0 0 0 0
0 0 0 0 0 0 0 0 0 0 0 0 0 0 0 0 0 0 0 0 0 0 0 0 0 0 0 0 0 0 0 0 0 0 0 0 0 0 -0 0 0 -0 0 -0 -0 0 0
0 0 0 0 0 0 0 0 0 0 0 0 0 0 0 0 0 0 0 0 0 0 0 0 0 0 0 0 0 0 0 0 0 0 0 -0 -0 0 0 0 -0 -0 0 0 -0 0 0
0 0 0 0 0 0 0 0 0 0 0 0 0 0 0 0 0 0 0 0 0 0 0 0 0 0 0 0 0 0 0 0 0 0 0 0 0 0 0 -0 -0 -0 -0 -0 0 0 0
0 0 0 0 0 0 0 0 0 0 0 0 0 0 0 0 0 0 0 0 0 0 0 0 0 0 0 0 0 0 0 -0 0 0 0 0 0 0 0 0 0 -0 0 0 -0 0 0
0 0 0 0 0 0 0 0 0 0 0 0 0 0 0 0 0 0 0 0 0 0 0 0 0 0 0 0 0 0 0 0 0 0 0 0 0 0 0 0 0 0 0 0 0 0 0
0 0 0 0 0 0 0 0 0 0 0 0 0 0 0 0 0 0 0 0 0 0 0 0 0 0 0 0 0 0 0 0 -0 -0 -0 0 0 0 0 0 0 0 -0 -0 0 0 0
0 0 0 0 0 0 0 0 0 0 0 0 0 0 0 0 0 0 0 0 0 0 0 0 0 0 0 0 0 0 0 -0 0 0 0 0 0 0 0 0 0 0 0 0 0 -0 -0
Wind_Speed_500mb
44 42 44 45 45 45 46 45 44 41 36 33 30 26 25 24 21 20 16 14 14 11 10 11 10 11 11 16 25 11 7 5 2 6 16 18 19 29 29 36 43 41 43 50 53 49 49
53 50 46 47 47 47 47 46 46 43 38 33 29 26 22 20 16 15 12 14 15 11 7 7 9 11 11 22 5 10 8 10 8 14 17 15 21 18 23 31 34 41 36 45 37 47 54
52 55 52 51 51 50 49 50 48 44 39 34 28 23 20 16 11 8 10 11 13 8 6 7 8 10 19 36 4 10 15 15 13 13 15 17 18 22 25 27 30 33 37 37 40 42 43
56 56 57 50 53 52 51 52 51 47 39 34 28 22 18 13 8 5 8 10 6 4 1 3 5 9 18 13 21 19 19 17 18 18 19 22 20 28 33 35 38 36 32 35 37 44 54
56 58 59 55 55 53 53 54 53 49 44 35 27 20 13 11 5 6 9 7 6 3 3 3 5 8 23 17 22 23 21 22 17 16 20 21 22 30 32 28 28 29 33 43 45 45 37
56 58 62 57 57 56 56 56 56 51 44 35 27 18 11 5 1 7 9 7 9 8 10 9 17 17 28 22 15 18 21 21 17 21 21 25 29 24 25 23 27 35 40 31 36 25 30
55 58 58 63 59 57 56 57 59 55 46 38 29 17 10 1 3 8 8 16 7 7 25 33 5 22 9 6 11 18 21 18 21 24 24 32 22 25 33 33 37 32 35 34 42 43 34
53 56 59 60 63 57 58 56 56 55 49 40 29 17 6 4 3 6 9 10 12 17 23 37 37 31 21 12 20 23 24 26 26 25 29 27 27 30 33 32 35 29 34 38 40 40 37
51 54 57 60 62 63 57 56 54 53 47 40 30 17 4 4 3 4 8 14 16 20 18 32 30 30 28 26 29 22 29 29 30 30 30 31 32 34 18 31 32 30 34 38 41 39 43
49 51 55 58 60 62 60 55 54 50 44 36 27 14 2 2 9 13 10 16 19 14 11 21 17 22 26 26 32 34 23 34 30 36 34 31 33 32 33 24 28 33 33 34 33 35 29
48 50 52 56 59 60 61 59 53 49 42 33 23 16 4 10 16 18 18 21 17 9 11 14 23 15 18 30 7 22 28 29 31 35 35 35 33 34 35 30 32 38 32 33 40 39 41
43 47 51 53 57 60 61 60 59 52 46 37 22 15 10 12 20 11 22 19 11 12 15 16 14 15 20 31 33 27 21 28 32 35 38 44 53 46 44 39 33 36 33 35 36 35 32
45 45 46 51 55 58 61 61 60 58 52 40 31 25 23 19 14 20 20 14 13 13 7 9 9 20 24 26 31 35 33 35 30 34 37 44 47 49 49 49 45 41 33 27 32 26 31
45 50 49 47 52 57 60 63 63 61 61 49 36 33 27 26 18 19 13 15 15 25 25 16 8 23 31 34 35 33 37 36 37 40 35 39 41 41 35 33 38 42 35 22 31 30 33
40 48 53 49 49 53 59 63 66 66 64 62 39 20 13 19 11 11 18 16 23 31 26 21 32 35 39 32 35 32 23 32 34 30 37 36 52 45 38 35 28 35 36 37 36 27 23
48 39 50 51 52 52 56 61 65 67 63 61 40 8 20 20 12 8 14 25 41 46 24 18 32 27 38 35 33 34 28 21 18 26 18 33 42 41 43 44 35 32 33 30 19 15 35
44 42 38 50 54 54 55 60 64 65 62 54 23 13 11 11 7 16 16 28 34 41 30 21 34 38 39 39 39 42 44 40 35 44 30 32 33 37 41 38 43 27 34 36 31 25 31
42 41 38 47 51 55 58 59 62 67 63 57 17 10 10 3 14 23 23 26 30 37 40 31 34 37 41 39 39 39 40 38 43 51 36 35 26 32 35 46 43 37 37 33 31 23 24
45 43 42 42 46 49 62 64 57 57 63 64 26 28 14 8 11 15 36 32 48 39 25 28 31 37 41 39 39 37 36 38 51 37 24 16 14 21 27 36 32 12 33 39 30 24 37
44 48 44 47 48 50 61 72 55 49 48 48 16 9 7 15 26 16 24 33 33 52 43 40 31 28 34 35 33 37 39 40 54 47 10 9 26 34 31 44 42 24 37 24 23 17 28
41 46 45 46 47 55 68 58 49 47 38 31 13 11 8 11 23 29 22 39 45 38 39 37 30 34 38 34 36 39 41 41 43 44 7 4 28 37 38 44 47 48 50 42 35 36 36
46 43 42 44 50 54 58 61 41 44 30 21 18 19 29 37 29 28 20 23 42 34 37 39 38 35 35 33 33 40 42 37 37 37 37 20 9 31 40 39 50 56 53 53 53 46 54
50 49 45 43 47 50 54 47 36 31 26 11 21 16 22 25 30 24 19 25 43 50 37 38 48 39 36 38 48 49 51 56 40 34 34 32 28 31 39 38 40 28 36 55 41 40 43
50 51 51 50 49 48 51 43 35 26 28 22 22 19 19 20 21 24 35 31 35 38 45 54 44 34 30 34 45 46 58 52 41 32 30 27 28 22 27 29 36 39 12 16 22 22 31
52 52 50 49 47 47 44 41 39 39 40 31 20 5 10 15 24 31 30 30 43 42 36 48 40 19 30 32 20 20 28 19 22 3 15 18 22 9 11 20 37 42 16 16 13 25 26
46 51 53 51 48 44 42 40 40 39 36 30 21 21 9 15 11 10 36 27 23 23 27 35 18 9 17 17 20 27 15 24 9 7 8 11 10 7 15 9 13 14 8 23 19 22 32
43 45 51 52 50 47 45 38 34 36 34 29 24 23 14 14 30 21 13 14 15 22 17 21 29 21 6 10 15 13 10 15 9 12 7 5 5 10 17 15 17 26 34 42 20 19 55
40 40 43 46 46 47 47 39 31 33 32 27 21 25 26 15 42 46 35 26 28 32 18 33 20 14 16 6 7 7 10 9 12 15 12 4 6 4 5 8 11 20 14 15 26 51 59
44 42 40 40 38 40 44 40 32 24 30 28 30 26 22 28 30 44 52 52 48 55 36 23 21 18 11 8 8 10 16 11 18 9 14 7 2 5 9 12 35 47 43 44 58 59 60
Wind_Direction_500mb
11 6 3 3 1 357 355 354 351 345 340 332 322 312 310 315 318 321 325 328 325 315 281 258 261 272 287 257 262 201 231 200 218 343 276 260 266 254 250 252 252 254 251 258 261 265 264
17 10 6 3 359 357 355 356 352 349 344 339 331 316 309 314 317 324 331 336 328 308 273 251 252 271 283 257 126 223 197 212 260 252 271 269 273 309 309 288 281 287 276 276 272 273 260
14 14 8 4 3 360 358 356 354 351 346 341 335 328 318 313 315 325 330 327 331 317 277 254 236 236 262 235 261 221 201 224 248 258 269 275 271 286 286 289 269 280 268 271 269 262 265
13 12 9 7 4 2 360 358 356 354 351 344 338 333 325 316 312 328 350 355 351 8 69 208 248 256 256 242 228 223 220 238 248 256 262 274 279 276 275 279 284 276 265 267 261 248 242
12 11 11 10 7 5 2 1 0 357 354 349 342 336 333 327 319 338 343 7 39 108 27 251 216 225 258 209 230 223 225 235 226 255 260 264 270 270 275 260 262 249 257 259 262 249 246
9 11 12 11 9 7 4 3 3 2 358 355 348 341 337 330 21 351 338 313 308 261 308 241 250 252 253 242 207 216 221 233 252 261 255 244 249 250 244 243 257 269 267 285 273 252 251
6 7 10 11 8 7 6 4 3 3 2 359 355 348 342 85 57 17 345 306 297 233 220 241 236 238 270 216 197 225 220 224 241 251 260 258 241 244 254 259 261 286 295 297 293 300 307
2 4 5 7 8 6 5 5 4 4 2 1 359 356 15 110 79 60 11 295 347 312 295 258 244 246 251 235 249 230 217 219 232 246 253 238 250 258 260 270 284 295 284 279 283 280 279
359 360 2 3 6 6 5 3 3 3 2 1 2 4 63 71 60 343 343 331 322 316 277 285 221 232 228 224 238 238 210 229 247 256 251 262 273 293 280 286 284 262 264 272 278 286 287
354 357 358 359 2 4 3 2 360 1 1 359 2 8 53 6 330 335 273 328 326 312 275 207 197 232 213 208 244 237 238 224 246 251 265 270 282 276 292 261 270 271 276 286 293 289 280
347 351 355 356 356 359 2 0 357 355 356 349 348 357 333 323 321 320 317 319 307 295 290 156 149 125 199 208 96 211 223 232 251 268 276 267 266 277 257 248 270 280 291 295 296 287 288
343 346 349 352 352 354 356 360 357 352 349 344 319 309 311 323 306 316 322 310 304 242 257 159 158 214 224 220 247 262 198 230 264 282 277 276 277 279 272 275 259 256 290 278 274 274 262
336 340 344 346 348 350 350 354 357 354 344 338 321 288 274 285 271 314 310 284 257 245 135 235 204 212 236 250 251 224 230 236 239 254 258 262 257 243 242 256 248 253 249 266 260 251 252
336 336 337 342 345 345 346 346 349 353 347 337 320 297 269 262 272 300 298 254 252 278 334 22 331 290 272 281 269 255 253 256 251 263 261 271 273 274 292 274 256 259 247 254 271 278 281
331 336 332 337 342 343 343 343 343 345 350 339 336 319 291 249 238 281 277 246 251 274 338 337 326 298 281 276 259 262 270 282 291 289 284 294 288 294 264 279 269 252 241 260 283 307 289
320 334 330 335 337 341 343 342 341 341 348 342 343 295 261 186 219 254 257 255 288 291 310 317 299 302 294 297 308 300 272 255 274 288 269 283 293 292 296 294 263 274 290 275 259 264 270
314 322 333 335 334 338 342 341 340 340 344 348 337 276 166 177 256 248 254 272 291 317 343 317 296 294 294 301 302 297 293 292 301 295 283 276 275 279 285 272 271 254 237 268 262 243 253
307 310 317 323 332 338 341 341 341 341 341 349 332 284 174 175 251 251 255 284 324 309 302 288 287 286 281 286 287 288 295 299 306 292 280 295 304 287 264 287 292 271 273 256 259 250 234
304 304 310 310 320 343 341 337 339 344 344 344 318 289 229 197 269 312 329 326 329 303 317 316 303 304 300 292 291 287 290 300 299 298 298 307 236 284 293 291 265 6 319 309 323 323 266
302 300 301 303 318 320 331 323 334 338 341 337 303 304 156 226 260 319 338 318 311 315 301 296 288 296 300 289 284 285 292 289 286 289 104 320 282 269 269 277 293 300 279 261 244 289 294
296 296 301 304 309 325 327 321 333 334 344 339 290 317 355 297 322 325 329 309 306 304 316 328 313 306 295 301 306 300 299 305 309 321 99 279 265 261 271 297 298 289 287 278 232 237 250
295 292 296 304 307 310 314 319 314 328 346 355 333 344 330 303 294 300 307 305 297 313 328 316 300 307 304 300 298 300 303 302 298 305 310 170 227 268 275 277 273 279 289 274 271 252 239
287 289 290 293 300 308 317 317 314 317 320 332 320 315 313 289 296 284 318 322 308 315 311 315 312 310 304 304 312 309 300 285 281 280 281 288 290 290 287 291 300 292 272 276 283 305 287
287 285 289 294 300 304 313 314 304 302 304 312 299 299 281 279 290 302 320 319 314 318 306 299 294 283 307 329 312 294 273 265 258 252 247 259 266 277 284 291 274 277 312 330 297 302 354
280 284 287 292 295 303 307 308 302 297 306 305 293 255 278 287 293 298 300 320 308 297 295 305 298 334 335 316 295 275 285 254 234 10 255 256 257 293 263 268 278 288 13 353 18 306 325
290 279 283 288 292 298 301 302 301 301 306 305 295 255 243 290 253 294 308 308 296 323 298 310 351 2 310 284 282 263 293 305 119 163 84 73 39 216 258 273 285 37 115 259 249 261 1
295 287 281 283 288 292 297 297 291 295 299 303 292 256 235 260 273 264 290 296 289 289 300 306 336 317 262 292 300 285 300 330 2 320 191 205 188 219 244 243 273 27 351 334 280 325 329
299 295 291 286 285 284 289 295 286 285 290 294 297 263 259 250 277 276 271 262 279 276 278 322 321 13 284 314 299 331 319 338 317 312 323 179 291 255 220 247 270 25 353 6 314 326 326
293 295 291 289 290 282 281 290 288 267 280 286 288 309 254 245 259 277 278 275 268 249 280 293 299 305 346 324 348 330 309 306 311 297 332 12 18 271 290 310 315 358 351 340 334 320 320
Wind_Speed_850mb
44 42 44 45 45 45 46 45 44 41 36 33 30 26 25 24 21 20 16 14 14 11 10 11 10 11 11 16 25 11 7 5 2 6 16 18 19 29 29 36 43 41 43 50 53 49 49
53 50 46 47 47 47 47 46 46 43 38 33 29 26 22 20 16 15 12 14 15 11 7 7 9 11 11 22 5 10 8 10 8 14 17 15 21 18 23 31 34 41 36 45 37 47 54
52 55 52 51 51 50 49 50 48 44 39 34 28 23 20 16 11 8 10 11 13 8 6 7 8 10 19 36 4 10 15 15 13 13 15 17 18 22 25 27 30 33 37 37 40 42 43
56 56 57 50 53 52 51 52 51 47 39 34 28 22 18 13 8 5 8 10 6 4 1 3 5 9 18 13 21 19 19 17 18 18 19 22 20 28 33 35 38 36 32 35 37 44 54
56 58 59 55 55 53 53 54 53 49 44 35 27 20 13 11 5 6 9 7 6 3 3 3 5 8 23 17 22 23 21 22 17 16 20 21 22 30 32 28 28 29 33 43 45 45 37
56 58 62 57 57 56 56 56 56 51 44 35 27 18 11 5 1 7 9 7 9 8 10 9 17 17 28 22 15 18 21 21 17 21 21 25 29 24 25 23 27 35 40 31 36 25 30
55 58 58 63 59 57 56 57 59 55 46 38 29 17 10 1 3 8 8 16 7 7 25 33 5 22 9 6 11 18 21 18 21 24 24 32 22 25 33 33 37 32 35 34 42 43 34
53 56 59 60 63 57 58 56 56 55 49 40 29 17 6 4 3 6 9 10 12 17 23 37 37 31 21 12 20 23 24 26 26 25 29 27 27 30 33 32 35 29 34 38 40 40 37
51 54 57 60 62 63 57 56 54 53 47 40 30 17 4 4 3 4 8 14 16 20 18 32 30 30 28 26 29 22 29 29 30 30 30 31 32 34 18 31 32 30 34 38 41 39 43
49 51 55 58 60 62 60 55 54 50 44 36 27 14 2 2 9 13 10 16 19 14 11 21 17 22 26 26 32 34 23 34 30 36 34 31 33 32 33 24 28 33 33 34 33 35 29
48 50 52 56 59 60 61 59 53 49 42 33 23 16 4 10 16 18 18 21 17 9 11 14 23 15 18 30 7 22 28 29 31 35 35 35 33 34 35 30 32 38 32 33 40 39 41
43 47 51 53 57 60 61 60 59 52 46 37 22 15 10 12 20 11 22 19 11 12 15 16 14 15 20 31 33 27 21 28 32 35 38 44 53 46 44 39 33 36 33 35 36 35 32
45 45 46 51 55 58 61 61 60 58 52 40 31 25 23 19 14 20 20 14 13 13 7 9 9 20 24 26 31 35 33 35 30 34 37 44 47 49 49 49 45 41 33 27 32 26 31
45 50 49 47 52 57 60 63 63 61 61 49 36 33 27 26 18 19 13 15 15 25 25 16 8 23 31 34 35 33 37 36 37 40 35 39 41 41 35 33 38 42 35 22 31 30 33
40 48 53 49 49 53 59 63 66 66 64 62 39 20 13 19 11 11 18 16 23 31 26 21 32 35 39 32 35 32 23 32 34 30 37 36 52 45 38 35 28 35 36 37 36 27 23
48 39 50 51 52 52 56 61 65 67 63 61 40 8 20 20 12 8 14 25 41 46 24 18 32 27 38 35 33 34 28 21 18 26 18 33 42 41 43 44 35 32 33 30 19 15 35
44 42 38 50 54 54 55 60 64 65 62 54 23 13 11 11 7 16 16 28 34 41 30 21 34 38 39 39 39 42 44 40 35 44 30 32 33 37 41 38 43 27 34 36 31 25 31
42 41 38 47 51 55 58 59 62 67 63 57 17 10 10 3 14 23 23 26 30 37 40 31 34 37 41 39 39 39 40 38 43 51 36 35 26 32 35 46 43 37 37 33 31 23 24
45 43 42 42 46 49 62 64 57 57 63 64 26 28 14 8 11 15 36 32 48 39 25 28 31 37 41 39 39 37 36 38 51 37 24 16 14 21 27 36 32 12 33 39 30 24 37
44 48 44 47 48 50 61 72 55 49 48 48 16 9 7 15 26 16 24 33 33 52 43 40 31 28 34 35 33 37 39 40 54 47 10 9 26 34 31 44 42 24 37 24 23 17 28
41 46 45 46 47 55 68 58 49 47 38 31 13 11 8 11 23 29 22 39 45 38 39 37 30 34 38 34 36 39 41 41 43 44 7 4 28 37 38 44 47 48 50 42 35 36 36
46 43 42 44 50 54 58 61 41 44 30 21 18 19 29 37 29 28 20 23 42 34 37 39 38 35 35 33 33 40 42 37 37 37 37 20 9 31 40 39 50 56 53 53 53 46 54
50 49 45 43 47 50 54 47 36 31 26 11 21 16 22 25 30 24 19 25 43 50 37 38 48 39 36 38 48 49 51 56 40 34 34 32 28 31 39 38 40 28 36 55 41 40 43
50 51 51 50 49 48 51 43 35 26 28 22 22 19 19 20 21 24 35 31 35 38 45 54 44 34 30 34 45 46 58 52 41 32 30 27 28 22 27 29 36 39 12 16 22 22 31
52 52 50 49 47 47 44 41 39 39 40 31 20 5 10 15 24 31 30 30 43 42 36 48 40 19 30 32 20 20 28 19 22 3 15 18 22 9 11 20 37 42 16 16 13 25 26
46 51 53 51 48 44 42 40 40 39 36 30 21 21 9 15 11 10 36 27 23 23 27 35 18 9 17 17 20 27 15 24 9 7 8 11 10 7 15 9 13 14 8 23 19 22 32
43 45 51 52 50 47 45 38 34 36 34 29 24 23 14 14 30 21 13 14 15 22 17 21 29 21 6 10 15 13 10 15 9 12 7 5 5 10 17 15 17 26 34 42 20 19 55
40 40 43 46 46 47 47 39 31 33 32 27 21 25 26 15 42 46 35 26 28 32 18 33 20 14 16 6 7 7 10 9 12 15 12 4 6 4 5 8 11 20 14 15 26 51 59
44 42 40 40 38 40 44 40 32 24 30 28 30 26 22 28 30 44 52 52 48 55 36 23 21 18 11 8 8 10 16 11 18 9 14 7 2 5 9 12 35 47 43 44 58 59 60
Wind_Direction_850mb
11 6 3 3 1 357 355 354 351 345 340 332 322 312 310 315 318 321 325 328 325 315 281 258 261 272 287 257 262 201 231 200 218 343 276 260 266 254 250 252 252 254 251 258 261 265 264
17 10 6 3 359 357 355 356 352 349 344 339 331 316 309 314 317 324 331 336 328 308 273 251 252 271 283 257 126 223 197 212 260 252 271 269 273 309 309 288 281 287 276 276 272 273 260
14 14 8 4 3 360 358 356 354 351 346 341 335 328 318 313 315 325 330 327 331 317 277 254 236 236 262 235 261 221 201 224 248 258 269 275 271 286 286 289 269 280 268 271 269 262 265
13 12 9 7 4 2 360 358 356 354 351 344 338 333 325 316 312 328 350 355 351 8 69 208 248 256 256 242 228 223 220 238 248 256 262 274 279 276 275 279 284 276 265 267 261 248 242
12 11 11 10 7 5 2 1 0 357 354 349 342 336 333 327 319 338 343 7 39 108 27 251 216 225 258 209 230 223 225 235 226 255 260 264 270 270 275 260 262 249 257 259 262 249 246
9 11 12 11 9 7 4 3 3 2 358 355 348 341 337 330 21 351 338 313 308 261 308 241 250 252 253 242 207 216 221 233 252 261 255 244 249 250 244 243 257 269 267 285 273 252 251
6 7 10 11 8 7 6 4 3 3 2 359 355 348 342 85 57 17 345 306 297 233 220 241 236 238 270 216 197 225 220 224 241 251 260 258 241 244 254 259 261 286 295 297 293 300 307
2 4 5 7 8 6 5 5 4 4 2 1 359 356 15 110 79 60 11 295 347 312 295 258 244 246 251 235 249 230 217 219 232 246 253 238 250 258 260 270 284 295 284 279 283 280 279
359 360 2 3 6 6 5 3 3 3 2 1 2 4 63 71 60 343 343 331 322 316 277 285 221 232 228 224 238 238 210 229 247 256 251 262 273 293 280 286 284 262 264 272 278 286 287
354 357 358 359 2 4 3 2 360 1 1 359 2 8 53 6 330 335 273 328 326 312 275 207 197 232 213 208 244 237 238 224 246 251 265 270 282 276 292 261 270 271 276 286 293 289 280
347 351 355 356 356 359 2 0 357 355 356 349 348 357 333 323 321 320 317 319 307 295 290 156 149 125 199 208 96 211 223 232 251 268 276 267 266 277 257 248 270 280 291 295 296 287 288
343 346 349 352 352 354 356 360 357 352 349 344 319 309 311 323 306 316 322 310 304 242 257 159 158 214 224 220 247 262 198 230 264 282 277 276 277 279 272 275 259 256 290 278 274 274 262
336 340 344 346 348 350 350 354 357 354 344 338 321 288 274 285 271 314 310 284 257 245 135 235 204 212 236 250 251 224 230 236 239 254 258 262 257 243 242 256 248 253 249 266 260 251 252
336 336 337 342 345 345 346 346 349 353 347 337 320 297 269 262 272 300 298 254 252 278 334 22 331 290 272 281 269 255 253 256 251 263 261 271 273 274 292 274 256 259 247 254 271 278 281
331 336 332 337 342 343 343 343 343 345 350 339 336 319 291 249 238 281 277 246 251 274 338 337 326 298 281 276 259 262 270 282 291 289 284 294 288 294 264 279 269 252 241 260 283 307 289
320 334 330 335 337 341 343 342 341 341 348 342 343 295 261 186 219 254 257 255 288 291 310 317 299 302 294 297 308 300 272 255 274 288 269 283 293 292 296 294 263 274 290 275 259 264 270
314 322 333 335 334 338 342 341 340 340 344 348 337 276 166 177 256 248 254 272 291 317 343 317 296 294 294 301 302 297 293 292 301 295 283 276 275 279 285 272 271 254 237 268 262 243 253
307 310 317 323 332 338 341 341 341 341 341 349 332 284 174 175 251 251 255 284 324 309 302 288 287 286 281 286 287 288 295 299 306 292 280 295 304 287 264 287 292 271 273 256 259 250 234
304 304 310 310 320 343 341 337 339 344 344 344 318 289 229 197 269 312 329 326 329 303 317 316 303 304 300 292 291 287 290 300 299 298 298 307 236 284 293 291 265 6 319 309 323 323 266
302 300 301 303 318 320 331 323 334 338 341 337 303 304 156 226 260 319 338 318 311 315 301 296 288 296 300 289 284 285 292 289 286 289 104 320 282 269 269 277 293 300 279 261 244 289 294
296 296 301 304 309 325 327 321 333 334 344 339 290 317 355 297 322 325 329 309 306 304 316 328 313 306 295 301 306 300 299 305 309 321 99 279 265 261 271 297 298 289 287 278 232 237 250
295 292 296 304 307 310 314 319 314 328 346 355 333 344 330 303 294 300 307 305 297 313 328 316 300 307 304 300 298 300 303 302 298 305 310 170 227 268 275 277 273 279 289 274 271 252 239
287 289 290 293 300 308 317 317 314 317 320 332 320 315 313 289 296 284 318 322 308 315 311 315 312 310 304 304 312 309 300 285 281 280 281 288 290 290 287 291 300 292 272 276 283 305 287
287 285 289 294 300 304 313 314 304 302 304 312 299 299 281 279 290 302 320 319 314 318 306 299 294 283 307 329 312 294 273 265 258 252 247 259 266 277 284 291 274 277 312 330 297 302 354
280 284 287 292 295 303 307 308 302 297 306 305 293 255 278 287 293 298 300 320 308 297 295 305 298 334 335 316 295 275 285 254 234 10 255 256 257 293 263 268 278 288 13 353 18 306 325
290 279 283 288 292 298 301 302 301 301 306 305 295 255 243 290 253 294 308 308 296 323 298 310 351 2 310 284 282 263 293 305 119 163 84 73 39 216 258 273 285 37 115 259 249 261 1
295 287 281 283 288 292 297 297 291 295 299 303 292 256 235 260 273 264 290 296 289 289 300 306 336 317 262 292 300 285 300 330 2 320 191 205 188 219 244 243 273 27 351 334 280 325 329
299 295 291 286 285 284 289 295 286 285 290 294 297 263 259 250 277 276 271 262 279 276 278 322 321 13 284 314 299 331 319 338 317 312 323 179 291 255 220 247 270 25 353 6 314 326 326
293 295 291 289 290 282 281 290 288 267 280 286 288 309 254 245 259 277 278 275 268 249 280 293 299 305 346 324 348 330 309 306 311 297 332 12 18 271 290 310 315 358 351 340 334 320 320